Regional Weather Roundup
Issued by NWS

Home | Current Version | Previous Version | Text Only | Print | Product List | Glossary Off
Versions: 1 2 3 4 5 6 7 8 9 10 11 12 13 14 15 16 17 18 19 20 21 22 23 24 25 26 27 28 29 30 31 32 33 34 35 36 37 38 39 40 41 42 43 44 45 46 47 48 49 50

000
ASUS43 KFSD 160410
RWRSD

WEATHER ROUNDUP FOR SOUTH DAKOTA
NATIONAL WEATHER SERVICE SIOUX FALLS SD
1100 PM CDT TUE APR 15 2014

NOTE: "FAIR" INDICATES FEW OR NO CLOUDS BELOW 12,000 FEET WITH NO
SIGNIFICANT WEATHER AND/OR OBSTRUCTIONS TO VISIBILITY.


SDZ001>005-009-010-012>017-160500-
NORTHWEST AND NORTH CENTRAL SOUTH DAKOTA

CITY           SKY/WX    TMP DP  RH WIND       PRES   REMARKS
BUFFALO          N/A     50  27  40 N13       29.55R
MOBRIDGE       CLOUDY    39  22  50 E32G40    29.62S
$$

SDZ012>016-024>037-041>051-057-063-072>074-160500-
SOUTHWEST AND SOUTH CENTRAL SOUTH DAKOTA

CITY           SKY/WX    TMP DP  RH WIND       PRES   REMARKS
RAPID CTY ARPT CLOUDY    52  33  48 N25G33    29.56R
PIERRE         CLOUDY    50  30  46 SE17      29.53S
CUSTER         CLOUDY    47  21  35 CALM      29.60R
ELLSWORTH AFB  LGT RAIN  51  36  55 NW26G32   29.58R
PHILIP         CLOUDY    50  22  33 CALM      29.50F
PINE RIDGE     CLOUDY    53  28  38 S10       29.55S
SPEARFISH      RAIN      41  37  87 W7        29.66R
WINNER         FAIR      56  29  35 S16G22    29.54F
$$

SDZ004>011-016>023-039-040-160500-
NORTHEAST SOUTH DAKOTA

CITY           SKY/WX    TMP DP  RH WIND       PRES   REMARKS
ABERDEEN       CLOUDY    33  16  49 E20       29.78S WCI  21
WATERTOWN      CLOUDY    34  20  56 E15G25    29.79F WCI  24
SISSETON         N/A     33  14  45 SE18      29.88F WCI  22
$$

SDZ017-020-022-023-036>040-048>070-160500-
SOUTHEAST SOUTH DAKOTA

CITY           SKY/WX    TMP DP  RH WIND       PRES   REMARKS
SIOUX FALLS    CLOUDY    40  25  55 SE17G23   29.78F
HURON          CLOUDY    43  25  49 SE18G25   29.67F
CHAMBERLAIN      N/A     48  29  47 SE17      29.58F
MITCHELL       CLOUDY    45  27  49 SE25G33   29.68F
YANKTON        CLOUDY    45  28  53 SE18G24   29.73F
$$

ABBREVIATIONS USED IN REMARKS
   TC - TEMPERATURE IN CELSIUS
  WCI - WIND CHILL INDEX
   HX - HEAT INDEX
  VSB - VISIBILITY




USA.gov is the U.S. government's official web portal to all federal, state and local government web resources and services.